星链-37178(STARLINK-37178)

导读

STARLINK-37178(NORAD编号68526)是美国太空探索技术公司(SpaceX)部署的星链(Starlink)低轨互联网卫星,归属Starlink V1.0卫星平台。该卫星运行在近地轨道,轨道倾角约70.003°,近地点约570公里、远地点约574公里,轨道周期约96.1分钟,每日绕地球运行约15圈。作为星链全球卫星互联网项目的组成部分,它为全球偏远地区提供高速低延迟互联网接入服务,同时也可支持军事、航空等领域的通信需求,助力缩小全球数字鸿沟。

基本信息
目录编号:
68526
目录名称:
STARLINK-37178
国际标识:
2026-068U
轨道中心:
EARTH
卫星名称:
星链-37178
卫星全名:
星链-37178(STARLINK-37178)
卫星状态:
在轨 (已飞行166 天)
发射日期:
2026-03-30 UTC
国别 :
美国 (US)
星等 :
--
该卫星已列入 空间交会检测服务 Space Conjunction Data Service (SCDS) ,当前飞行风险评估等级: 高风险
轨道信息
数据来源 国际轨道数据 AOE轨道数据
星历时间 2026-09-12T06:43:55+0800
12小时前
查看轨道信息
2026-09-06T07:00:00+0800
6天前
查看轨道信息
半长轴 6840.862km 6840.782km
偏心率 0.0002116 0.0000053
轨道倾角 53.160° 53.166°
近地点辐角 74.386° 192.634°
升交点赤经 334.036° 2.025°
平近点角 285.738° 187.905°
近地点 461.277km 462.608km
远地点 464.173km 462.682km
周期 93.848分钟 93.847分钟
每日圈数 15.34393 15.344199
详细信息
固有亮度:
5
最大亮度:
2.5
卫星平台:
Starlink V1.0
覆盖范围:
全球
运营商:
太空探索技术公司
运营商所在国:
美国
制造商(研发单位):
太空探索技术公司
制造商所在国:
美国
使用方式:
暂无
卫星简介
Starlink 计划是 SpaceX 推出的全球卫星互联网项目,通过发射低轨道卫星,为全球尤其是偏远地区提供高速、低延迟的互联网服务。自 2019 年起,Starlink 已部署数千颗卫星,旨在缩小全球数字鸿沟,推动互联网普及。该项目还为军事、航空等行业提供通信支持,带来广泛经济效益。
2D轨道图
3D轨道图
轨道高度分析图
轨道倾角分析图
轨道综合分析图
查看轨道综合分析图
交会数据列表
事件ID 空间交会对象 最接近时刻(TCA) 交会距离 交会风险概率(CRP) 交会风险指数(CRI) 操作
CDM_260914-020105-313406-852621
2026-09-14T
02:01:36+0000
0.549 km
远距离
1.048482E-4 高风险 0.75
CDM_260913-155105-313406-852621
2026-09-13T
15:51:58+0000
0.727 km
远距离
4.672287E-5 中风险 0.68
CDM_260912-065505-468906-852621
OBJECT H (54689)
2026-09-12T
06:55:43+0000
1.773 km
极远距离
3.419265E-6 低风险 0.46
CDM_260914-132105-417406-852621
2026-09-14T
13:21:20+0000
2.793 km
极远距离
1.293764E-6 低风险 0.37
CDM_260913-172505-313406-852621
2026-09-13T
17:25:45+0000
2.340 km
极远距离
1.29134E-6 低风险 0.37
CDM_260914-002705-313406-852621
2026-09-14T
00:27:49+0000
2.941 km
极远距离
9.089871E-7 极低风险 0.34
与全量物体交会距离演化趋势
与全量物体交会风险概率演化趋势